| time (UTC) | temp F | wind direction | speed knots | gust knots | rain 1hr in | rain 24hr in | rain mn in | humidity % | barometer mb |
| 20260506044803 | 48 | 57 | 2.6 | 7.0 | 0.02 | 0.06 | 0.06 | 94 | 1006.8 |
| 20260506044303 | 48 | 5 | 2.6 | 7.0 | 0.02 | 0.06 | 0.06 | 94 | 1006.9 |
| 20260506044059 | 48 | 329 | 1.7 | 5.2 | 0.02 | 0.06 | 0.06 | 94 | 1006.9 |
| 20260506043253 | 48 | 325 | 2.6 | 7.8 | 0.01 | 0.06 | 0.06 | 94 | 1006.9 |
| 20260506042751 | 48 | 5 | 1.7 | 7.8 | 0.01 | 0.06 | 0.06 | 95 | 1006.8 |
| 20260506042250 | 48 | 319 | 1.7 | 3.5 | 0.02 | 0.06 | 0.06 | 95 | 1006.9 |
| 20260506041747 | 48 | 28 | 1.7 | 3.5 | 0.02 | 0.06 | 0.06 | 95 | 1006.8 |
| 20260506041248 | 47 | 22 | 1.7 | 4.3 | 0.02 | 0.06 | 0.06 | 94 | 1006.8 |
| 20260506040747 | 47 | 331 | 1.7 | 4.3 | 0.02 | 0.06 | 0.06 | 94 | 1006.9 |
| 20260506040249 | 47 | 0 | 1.7 | 4.3 | 0.02 | 0.06 | 0.06 | 94 | 1006.9 |
| 20260506035746 | 48 | 5 | 0.9 | 3.5 | 0.02 | 0.06 | 0.06 | 94 | 1006.9 |
| 20260506035636 | 47 | 23 | 1.7 | 4.3 | 0.02 | 0.05 | 0.05 | 94 | 1007.0 |
| 20260506035626 | 47 | 57 | 1.7 | 4.3 | 0.02 | 0.05 | 0.05 | 94 | 1006.9 |
| 20260506034240 | 47 | 348 | 2.6 | 4.3 | 0.02 | 0.05 | 0.05 | 94 | 1007.0 |
| 20260506034038 | 47 | 5 | 2.6 | 4.3 | 0.02 | 0.05 | 0.05 | 94 | 1006.9 |
| 20260506033535 | 47 | 344 | 2.6 | 5.2 | 0.02 | 0.05 | 0.05 | 94 | 1007.0 |
| 20260506032741 | 47 | 337 | 2.6 | 5.2 | 0.02 | 0.05 | 0.05 | 94 | 1007.0 |
| 20260506032243 | 47 | 30 | 2.6 | 5.2 | 0.02 | 0.04 | 0.04 | 94 | 1007.0 |
| 20260506031743 | 47 | 355 | 2.6 | 7.0 | 0.02 | 0.04 | 0.04 | 94 | 1007.0 |
| 20260506031240 | 47 | 0 | 2.6 | 7.0 | 0.02 | 0.04 | 0.04 | 94 | 1007.1 |
| 20260506030735 | 48 | 343 | 2.6 | 7.0 | 0.02 | 0.04 | 0.04 | 94 | 1007.1 |
| 20260506030238 | 48 | 68 | 2.6 | 7.0 | 0.01 | 0.03 | 0.03 | 94 | 1007.2 |
| 20260506025735 | 48 | 5 | 2.6 | 6.1 | 0.02 | 0.03 | 0.03 | 94 | 1007.3 |
| 20260506025224 | 48 | 334 | 1.7 | 5.2 | 0.02 | 0.03 | 0.03 | 93 | 1007.3 |
| 20260506024812 | 48 | 28 | 2.6 | 7.0 | 0.02 | 0.03 | 0.03 | 93 | 1007.4 |
| 20260506024751 | 48 | 0 | 2.6 | 7.0 | 0.02 | 0.03 | 0.03 | 93 | 1007.4 |
| 20260506023711 | 48 | 355 | 2.6 | 4.3 | 0.02 | 0.03 | 0.03 | 93 | 1007.3 |
| 20260506023214 | 48 | 5 | 2.6 | 8.7 | 0.02 | 0.03 | 0.03 | 93 | 1007.3 |
| 20260506022707 | 48 | 16 | 2.6 | 8.7 | 0.02 | 0.03 | 0.02 | 93 | 1007.4 |
| 20260506022206 | 48 | 12 | 2.6 | 7.0 | 0.02 | 0.02 | 0.02 | 93 | 1007.3 |
| 20260506021705 | 48 | 27 | 1.7 | 7.0 | 0.02 | 0.02 | 0.02 | 93 | 1007.4 |
| 20260506021209 | 48 | 355 | 2.6 | 6.1 | 0.02 | 0.02 | 0.02 | 93 | 1007.4 |
| 20260506020704 | 48 | 5 | 2.6 | 5.2 | 0.02 | 0.02 | 0.02 | 92 | 1007.4 |
| 20260506020455 | 48 | 5 | 1.7 | 4.3 | 0.02 | 0.03 | 0.02 | 92 | 1007.5 |
| 20260506015956 | 48 | 348 | 2.6 | 10.4 | 0.02 | 0.02 | 0.02 | 92 | 1007.5 |
| 20260506015204 | 48 | 0 | 2.6 | 10.4 | 0.02 | 0.02 | 0.02 | 92 | 1007.5 |
| 20260506014706 | 48 | 296 | 1.7 | 4.3 | 0.02 | 0.02 | 0.02 | 92 | 1007.6 |
| 20260506014457 | 48 | 0 | 1.7 | 4.3 | 0.02 | 0.02 | 0.01 | 92 | 1007.6 |
| 20260506013711 | 48 | 22 | 1.7 | 4.3 | 0.01 | 0.02 | 0.01 | 92 | 1007.6 |
| 20260506013217 | 48 | 5 | 1.7 | 5.2 | 0.01 | 0.02 | 0.01 | 92 | 1007.6 |
| 20260506012955 | 48 | 26 | 2.6 | 8.7 | 0.01 | 0.02 | 0.01 | 91 | 1007.6 |
| 20260506012204 | 48 | 15 | 2.6 | 8.7 | 0.01 | 0.02 | 0.01 | 91 | 1007.7 |
| 20260506011955 | 48 | 5 | 2.6 | 8.7 | 0.00 | 0.02 | 0.00 | 91 | 1007.6 |
| 20260506011159 | 48 | 325 | 3.5 | 8.7 | 0.00 | 0.02 | 0.00 | 91 | 1007.7 |
| 20260506010702 | 49 | 32 | 3.5 | 7.8 | 0.00 | 0.02 | 0.00 | 90 | 1007.7 |
| 20260506010444 | 49 | 329 | 2.6 | 7.8 | 0.00 | 0.02 | 0.00 | 90 | 1007.7 |
| 20260506005658 | 49 | 355 | 3.5 | 7.8 | 0.00 | 0.02 | 0.00 | 90 | 1007.7 |
| 20260506005157 | 49 | 336 | 3.5 | 7.8 | 0.00 | 0.02 | 0.00 | 90 | 1007.8 |
| 20260506004655 | 49 | 0 | 2.6 | 8.7 | 0.00 | 0.03 | 0.00 | 89 | 1007.8 |
| 20260506004155 | 49 | 19 | 3.5 | 8.7 | 0.00 | 0.03 | 0.00 | 89 | 1007.9 |
| 20260506003655 | 49 | 62 | 3.5 | 7.8 | 0.00 | 0.03 | 0.00 | 89 | 1007.9 |
| 20260506003155 | 49 | 22 | 3.5 | 7.8 | 0.00 | 0.03 | 0.00 | 88 | 1007.9 |
| 20260506002653 | 49 | 317 | 3.5 | 7.8 | 0.00 | 0.04 | 0.00 | 88 | 1007.8 |
| 20260506002349 | 49 | 5 | 2.6 | 8.7 | 0.00 | 0.05 | 0.00 | 89 | 1007.9 |
| 20260506002345 | 49 | 5 | 2.6 | 7.0 | 0.00 | 0.05 | 0.00 | 89 | 1008.0 |
| 20260506002320 | 49 | 348 | 3.5 | 8.7 | 0.00 | 0.04 | 0.00 | 88 | 1007.9 |
| 20260506000653 | 49 | 24 | 2.6 | 7.0 | 0.00 | 0.06 | 0.00 | 89 | 1008.0 |
| 20260506000155 | 49 | 349 | 3.5 | 7.8 | 0.00 | 0.06 | 0.00 | 89 | 1008.0 |
| 20260505235655 | 49 | 39 | 3.5 | 7.8 | 0.00 | 0.06 | 0.00 | 89 | 1008.1 |
| 20260505235153 | 49 | 351 | 2.6 | 7.0 | 0.00 | 0.06 | 0.00 | 89 | 1008.1 |
| 20260505234653 | 49 | 334 | 2.6 | 7.8 | 0.00 | 0.07 | 0.00 | 89 | 1008.2 |
| 20260505234153 | 49 | 16 | 2.6 | 7.8 | 0.00 | 0.08 | 0.00 | 89 | 1008.2 |
| 20260505233654 | 49 | 355 | 3.5 | 8.7 | 0.00 | 0.09 | 0.00 | 89 | 1008.3 |
| 20260505233152 | 49 | 336 | 3.5 | 8.7 | 0.00 | 0.10 | 0.00 | 89 | 1008.3 |
| 20260505232653 | 49 | 355 | 3.5 | 7.8 | 0.00 | 0.11 | 0.00 | 89 | 1008.3 |
| 20260505232153 | 49 | 288 | 3.5 | 7.8 | 0.00 | 0.12 | 0.00 | 89 | 1008.4 |
| 20260505231654 | 49 | 321 | 3.5 | 8.7 | 0.00 | 0.13 | 0.00 | 89 | 1008.4 |
| 20260505231154 | 49 | 62 | 3.5 | 8.7 | 0.00 | 0.15 | 0.00 | 89 | 1008.4 |
| 20260505230659 | 49 | 22 | 2.6 | 6.1 | 0.00 | 0.16 | 0.00 | 89 | 1008.5 |
| 20260505230153 | 49 | 39 | 3.5 | 8.7 | 0.00 | 0.17 | 0.00 | 89 | 1008.5 |
| 20260505225653 | 49 | 331 | 4.3 | 9.6 | 0.00 | 0.18 | 0.00 | 89 | 1008.5 |
| 20260505225153 | 49 | 49 | 4.3 | 9.6 | 0.00 | 0.20 | 0.00 | 88 | 1008.5 |
| 20260505224941 | 49 | 106 | 3.5 | 8.7 | 0.00 | 0.21 | 0.00 | 89 | 1008.6 |
| 20260505224154 | 49 | 32 | 3.5 | 7.0 | 0.00 | 0.23 | 0.00 | 89 | 1008.6 |
| 20260505223654 | 50 | 296 | 3.5 | 8.7 | 0.00 | 0.24 | 0.00 | 88 | 1008.6 |
| 20260505223154 | 50 | 346 | 3.5 | 9.6 | 0.00 | 0.24 | 0.00 | 88 | 1008.6 |
| 20260505222653 | 50 | 11 | 2.6 | 9.6 | 0.00 | 0.24 | 0.00 | 88 | 1008.6 |
| 20260505222152 | 50 | 52 | 3.5 | 9.6 | 0.00 | 0.24 | 0.00 | 88 | 1008.8 |
| 20260505221653 | 50 | 11 | 3.5 | 9.6 | 0.00 | 0.24 | 0.00 | 88 | 1008.7 |
| 20260505221151 | 50 | 29 | 3.5 | 7.8 | 0.00 | 0.24 | 0.00 | 88 | 1008.7 |
| 20260505220650 | 50 | 355 | 3.5 | 10.4 | 0.00 | 0.24 | 0.00 | 88 | 1008.7 |
| 20260505220151 | 50 | 348 | 3.5 | 10.4 | 0.00 | 0.24 | 0.00 | 88 | 1008.7 |
| 20260505215648 | 50 | 19 | 3.5 | 7.8 | 0.00 | 0.24 | 0.24 | 88 | 1008.7 |
| 20260505215150 | 50 | 24 | 3.5 | 7.8 | 0.00 | 0.24 | 0.24 | 88 | 1008.8 |
| 20260505214648 | 50 | 51 | 3.5 | 9.6 | 0.00 | 0.24 | 0.24 | 88 | 1008.8 |
| 20260505214611 | 50 | 317 | 3.5 | 7.8 | 0.00 | 0.24 | 0.24 | 88 | 1008.9 |
| 20260505214246 | 50 | 350 | 3.5 | 9.6 | 0.00 | 0.24 | 0.24 | 88 | 1008.8 |
| 20260505213146 | 50 | 346 | 4.3 | 8.7 | 0.00 | 0.24 | 0.24 | 88 | 1008.9 |
| 20260505212645 | 50 | 5 | 4.3 | 8.7 | 0.00 | 0.24 | 0.24 | 88 | 1008.9 |
| 20260505212435 | 50 | 72 | 3.5 | 7.8 | 0.00 | 0.24 | 0.24 | 88 | 1008.9 |
| 20260505211646 | 50 | 32 | 3.5 | 8.7 | 0.00 | 0.24 | 0.24 | 88 | 1008.9 |
| 20260505211146 | 50 | 81 | 3.5 | 9.6 | 0.00 | 0.24 | 0.24 | 87 | 1008.9 |
| 20260505210943 | 51 | 350 | 3.5 | 9.6 | 0.00 | 0.25 | 0.24 | 88 | 1009.0 |
| 20260505210150 | 51 | 17 | 3.5 | 7.8 | 0.00 | 0.26 | 0.24 | 87 | 1008.9 |
| 20260505205647 | 51 | 338 | 3.5 | 9.6 | 0.00 | 0.27 | 0.24 | 88 | 1009.0 |
| 20260505205429 | 51 | 336 | 2.6 | 9.6 | 0.00 | 0.29 | 0.24 | 88 | 1009.1 |
| 20260505204645 | 51 | 18 | 2.6 | 7.8 | 0.00 | 0.31 | 0.24 | 88 | 1009.1 |
| 20260505204145 | 51 | 355 | 3.5 | 7.8 | 0.00 | 0.32 | 0.24 | 88 | 1009.1 |
| 20260505203641 | 51 | 30 | 3.5 | 7.0 | 0.00 | 0.34 | 0.24 | 88 | 1009.1 |
| 20260505203142 | 51 | 55 | 2.6 | 7.8 | 0.00 | 0.35 | 0.24 | 88 | 1009.1 |
| 20260505202642 | 51 | 9 | 2.6 | 7.8 | 0.00 | 0.36 | 0.24 | 88 | 1009.1 |
| 20260505202139 | 51 | 355 | 2.6 | 7.8 | 0.00 | 0.40 | 0.24 | 88 | 1009.1 |
| 20260505201640 | 51 | 327 | 2.6 | 7.8 | 0.00 | 0.43 | 0.24 | 88 | 1009.1 |
| 20260505201433 | 51 | 341 | 2.6 | 7.0 | 0.00 | 0.46 | 0.24 | 88 | 1009.1 |
| 20260505200641 | 51 | 9 | 2.6 | 8.7 | 0.00 | 0.48 | 0.24 | 88 | 1009.0 |
| 20260505200139 | 51 | 5 | 2.6 | 8.7 | 0.00 | 0.51 | 0.24 | 88 | 1009.0 |
| 20260505195639 | 51 | 5 | 3.5 | 9.6 | 0.00 | 0.55 | 0.24 | 88 | 1009.0 |
| 20260505195138 | 51 | 27 | 4.3 | 9.6 | 0.00 | 0.61 | 0.24 | 88 | 1009.0 |
| 20260505194638 | 51 | 346 | 4.3 | 9.6 | 0.00 | 0.67 | 0.24 | 88 | 1009.0 |
| 20260505194136 | 51 | 12 | 2.6 | 7.8 | 0.00 | 0.74 | 0.24 | 88 | 1008.9 |
| 20260505193635 | 51 | 0 | 2.6 | 7.8 | 0.00 | 0.90 | 0.24 | 88 | 1009.0 |
| 20260505193136 | 51 | 350 | 2.6 | 6.1 | 0.00 | 1.20 | 0.24 | 88 | 1008.9 |
| 20260505192634 | 51 | 55 | 3.5 | 7.8 | 0.00 | 1.33 | 0.24 | 88 | 1008.9 |
| 20260505192131 | 51 | 38 | 3.5 | 8.7 | 0.00 | 1.49 | 0.24 | 88 | 1008.8 |
| 20260505191633 | 51 | 26 | 3.5 | 9.6 | 0.00 | 1.58 | 0.24 | 88 | 1008.8 |
| 20260505191130 | 51 | 5 | 3.5 | 9.6 | 0.00 | 1.79 | 0.24 | 88 | 1008.8 |
| 20260505190632 | 51 | 345 | 3.5 | 7.8 | 0.00 | 1.93 | 0.24 | 88 | 1008.8 |
| 20260505190130 | 52 | 355 | 3.5 | 7.8 | 0.00 | 1.96 | 0.24 | 88 | 1008.8 |
| 20260505185632 | 52 | 28 | 3.5 | 7.8 | 0.00 | 1.97 | 0.24 | 88 | 1008.8 |
| 20260505185131 | 52 | 40 | 2.6 | 7.0 | 0.00 | 1.97 | 0.24 | 88 | 1008.8 |
| 20260505184630 | 52 | 300 | 2.6 | 6.1 | 0.00 | 1.97 | 0.24 | 88 | 1008.7 |
| 20260505184131 | 52 | 329 | 2.6 | 7.8 | 0.00 | 1.97 | 0.24 | 88 | 1008.6 |
| 20260505183633 | 52 | 22 | 3.5 | 7.8 | 0.00 | 1.97 | 0.24 | 88 | 1008.7 |
| 20260505183131 | 52 | 355 | 2.6 | 7.0 | 0.00 | 1.98 | 0.24 | 88 | 1008.7 |
| 20260505182934 | 52 | 333 | 2.6 | 7.8 | 0.00 | 1.98 | 0.24 | 88 | 1008.7 |
| 20260505182430 | 52 | 14 | 3.5 | 7.8 | 0.00 | 1.98 | 0.24 | 88 | 1008.6 |
| 20260505181620 | 52 | 346 | 3.5 | 7.8 | 0.00 | 1.98 | 0.24 | 87 | 1008.7 |
| 20260505181113 | 52 | 51 | 3.5 | 7.0 | 0.00 | 1.98 | 0.24 | 87 | 1008.7 |
| 20260505180609 | 52 | 15 | 3.5 | 7.0 | 0.00 | 1.98 | 0.24 | 88 | 1008.7 |
| 20260505180103 | 52 | 19 | 3.5 | 8.7 | 0.00 | 1.98 | 0.24 | 87 | 1008.7 |
| 20260505175604 | 52 | 9 | 3.5 | 8.7 | 0.00 | 1.98 | 0.24 | 87 | 1008.7 |
| 20260505175102 | 52 | 355 | 3.5 | 8.7 | 0.00 | 1.98 | 0.24 | 88 | 1008.7 |
| 20260505174604 | 52 | 26 | 3.5 | 8.7 | 0.00 | 1.98 | 0.24 | 88 | 1008.7 |
| 20260505174102 | 52 | 336 | 3.5 | 7.0 | 0.00 | 1.98 | 0.24 | 87 | 1008.7 |
| 20260505173858 | 52 | 60 | 2.6 | 11.3 | 0.00 | 1.98 | 0.24 | 87 | 1008.8 |
| 20260505173103 | 52 | 30 | 2.6 | 11.3 | 0.00 | 1.98 | 0.24 | 87 | 1008.8 |
| 20260505172602 | 52 | 336 | 2.6 | 7.8 | 0.00 | 1.98 | 0.24 | 87 | 1008.7 |
| 20260505172103 | 53 | 5 | 2.6 | 8.7 | 0.00 | 1.98 | 0.24 | 87 | 1008.8 |
| 20260505171603 | 53 | 10 | 2.6 | 8.7 | 0.00 | 1.98 | 0.24 | 87 | 1008.7 |
| 20260505171104 | 53 | 350 | 2.6 | 6.1 | 0.00 | 1.98 | 0.24 | 87 | 1008.8 |
| 20260505170602 | 53 | 67 | 2.6 | 6.1 | 0.00 | 1.98 | 0.24 | 87 | 1008.8 |
| 20260505165900 | 53 | 339 | 2.6 | 7.0 | 0.00 | 1.98 | 0.24 | 86 | 1008.8 |
| 20260505165401 | 53 | 338 | 2.6 | 7.8 | 0.00 | 1.98 | 0.24 | 86 | 1008.8 |
| 20260505164557 | 53 | 17 | 3.5 | 7.8 | 0.00 | 1.98 | 0.24 | 86 | 1008.9 |
| 20260505164055 | 53 | 65 | 2.6 | 7.8 | 0.00 | 1.98 | 0.24 | 86 | 1008.9 |
| 20260505163557 | 53 | 18 | 2.6 | 7.8 | 0.00 | 1.98 | 0.24 | 86 | 1008.9 |
| 20260505163054 | 53 | 13 | 2.6 | 7.0 | 0.00 | 1.98 | 0.24 | 86 | 1008.9 |
| 20260505162553 | 53 | 355 | 2.6 | 6.1 | 0.00 | 1.98 | 0.24 | 86 | 1009.0 |
| 20260505162051 | 53 | 318 | 2.6 | 7.8 | 0.00 | 1.98 | 0.24 | 86 | 1009.0 |
| 20260505161551 | 53 | 28 | 2.6 | 7.8 | 0.00 | 1.98 | 0.24 | 86 | 1009.1 |
| 20260505161051 | 53 | 15 | 2.6 | 6.1 | 0.00 | 1.98 | 0.24 | 85 | 1009.1 |
| 20260505160549 | 53 | 5 | 3.5 | 7.8 | 0.00 | 1.98 | 0.24 | 85 | 1009.1 |
| 20260505153044 | 54 | 28 | 3.5 | 10.4 | 0.00 | 1.98 | 0.24 | 85 | 1009.1 |
| 20260505152845 | 54 | 0 | 2.6 | 7.8 | 0.00 | 1.98 | 0.24 | 86 | 1009.1 |
| 20260505152043 | 54 | 17 | 3.5 | 7.8 | 0.00 | 1.98 | 0.24 | 86 | 1009.1 |
| 20260505151542 | 54 | 327 | 2.6 | 7.0 | 0.00 | 1.98 | 0.24 | 86 | 1009.2 |
| 20260505151041 | 54 | 24 | 2.6 | 8.7 | 0.00 | 1.98 | 0.24 | 86 | 1009.2 |
| 20260505150543 | 54 | 331 | 2.6 | 8.7 | 0.00 | 1.98 | 0.24 | 87 | 1009.2 |
| 20260505140533 | 53 | 0 | 1.7 | 5.2 | 0.00 | 1.98 | 0.24 | 89 | 1009.7 |
| 20260505140334 | 53 | 9 | 2.6 | 5.2 | 0.00 | 1.98 | 0.24 | 88 | 1009.7 |
| 20260505125035 | 52 | 36 | 2.6 | 7.0 | 0.00 | 1.98 | 0.24 | 89 | 1010.1 |
| 20260505124527 | 52 | 84 | 1.7 | 4.3 | 0.00 | 1.98 | 0.24 | 89 | 1010.2 |
| 20260505124022 | 52 | 5 | 2.6 | 8.7 | 0.00 | 1.98 | 0.24 | 90 | 1010.2 |
| 20260505123812 | 52 | 16 | 4.3 | 9.6 | 0.00 | 1.98 | 0.24 | 90 | 1010.2 |
| 20260505123021 | 52 | 355 | 4.3 | 9.6 | 0.00 | 1.98 | 0.24 | 89 | 1010.2 |
| 20260505122509 | 52 | 0 | 4.3 | 7.8 | 0.00 | 1.98 | 0.24 | 90 | 1010.3 |
| 20260505122000 | 52 | 355 | 3.5 | 8.7 | 0.00 | 1.98 | 0.24 | 90 | 1010.3 |
| 20260505121452 | 52 | 43 | 3.5 | 8.7 | 0.00 | 1.98 | 0.24 | 91 | 1010.3 |
| 20260505120944 | 52 | 86 | 2.6 | 7.8 | 0.00 | 1.98 | 0.24 | 91 | 1010.3 |
| 20260505120745 | 51 | 37 | 2.6 | 7.0 | 0.00 | 1.98 | 0.24 | 91 | 1010.3 |
| 20260505115935 | 51 | 59 | 2.6 | 7.0 | 0.00 | 1.98 | 0.24 | 91 | 1010.3 |
| 20260505115734 | 51 | 322 | 2.6 | 8.7 | 0.00 | 1.98 | 0.24 | 91 | 1010.4 |
| 20260505115044 | 51 | 345 | 2.6 | 7.8 | 0.00 | 1.98 | 0.24 | 91 | 1010.6 |
| 20260505115013 | 51 | 340 | 2.6 | 8.7 | 0.00 | 1.98 | 0.24 | 91 | 1010.5 |
| 20260505113929 | 51 | 28 | 2.6 | 7.8 | 0.00 | 1.98 | 0.24 | 91 | 1010.5 |
| 20260505113427 | 51 | 332 | 1.7 | 4.3 | 0.00 | 1.98 | 0.24 | 92 | 1010.5 |
| 20260505113226 | 51 | 46 | 2.6 | 5.2 | 0.00 | 1.98 | 0.24 | 92 | 1010.4 |
| 20260505112423 | 51 | 27 | 2.6 | 5.2 | 0.00 | 1.98 | 0.24 | 92 | 1010.4 |
| 20260505111922 | 51 | 30 | 2.6 | 6.1 | 0.00 | 1.98 | 0.24 | 92 | 1010.4 |
| 20260505111423 | 51 | 47 | 3.5 | 7.0 | 0.00 | 1.98 | 0.24 | 92 | 1010.4 |
| 20260505110924 | 51 | 56 | 2.6 | 7.8 | 0.00 | 1.98 | 0.24 | 92 | 1010.5 |
| 20260505110434 | 51 | 15 | 2.6 | 7.8 | 0.00 | 1.98 | 0.24 | 92 | 1010.6 |
| 20260505101905 | 49 | 59 | 3.5 | 10.4 | 0.00 | 1.98 | 0.24 | 95 | 1010.8 |
| 20260505101404 | 49 | 5 | 3.5 | 10.4 | 0.00 | 1.98 | 0.24 | 94 | 1010.8 |
| 20260505100905 | 49 | 337 | 3.5 | 7.8 | 0.00 | 1.98 | 0.24 | 95 | 1010.9 |
| 20260505100405 | 49 | 55 | 3.5 | 7.8 | 0.00 | 1.98 | 0.24 | 95 | 1010.9 |
| 20260505095904 | 49 | 14 | 3.5 | 7.8 | 0.00 | 1.98 | 0.24 | 95 | 1010.9 |
| 20260505095402 | 49 | 56 | 3.5 | 7.8 | 0.00 | 1.98 | 0.24 | 95 | 1010.8 |
| 20260505094904 | 49 | 333 | 2.6 | 7.0 | 0.00 | 1.98 | 0.24 | 95 | 1010.8 |
| 20260505094403 | 49 | 355 | 2.6 | 7.8 | 0.00 | 1.98 | 0.24 | 95 | 1010.9 |
| 20260505094204 | 49 | 88 | 3.5 | 7.8 | 0.00 | 1.98 | 0.24 | 95 | 1010.9 |
| 20260505093406 | 49 | 0 | 3.5 | 7.8 | 0.00 | 1.98 | 0.24 | 95 | 1010.9 |
| 20260505092903 | 49 | 350 | 2.6 | 7.8 | 0.00 | 1.98 | 0.24 | 95 | 1010.9 |
| 20260505092403 | 49 | 351 | 2.6 | 7.0 | 0.00 | 1.98 | 0.24 | 95 | 1010.9 |
| 20260505091902 | 49 | 0 | 3.5 | 7.8 | 0.00 | 1.98 | 0.24 | 95 | 1010.9 |
| 20260505091404 | 48 | 344 | 3.5 | 7.8 | 0.00 | 1.98 | 0.24 | 95 | 1010.8 |
| 20260505090858 | 48 | 338 | 3.5 | 8.7 | 0.00 | 1.98 | 0.24 | 95 | 1010.9 |
| 20260505090651 | 48 | 51 | 3.5 | 8.7 | 0.00 | 1.98 | 0.24 | 95 | 1010.9 |
| 20260505085850 | 48 | 46 | 3.5 | 7.8 | 0.00 | 1.98 | 0.24 | 95 | 1010.9 |
| 20260505085350 | 48 | 0 | 3.5 | 7.8 | 0.00 | 1.98 | 0.24 | 95 | 1010.9 |
| 20260505084848 | 48 | 20 | 3.5 | 8.7 | 0.00 | 1.98 | 0.24 | 95 | 1010.9 |
| 20260505084349 | 48 | 334 | 3.5 | 8.7 | 0.00 | 1.98 | 0.24 | 95 | 1011.0 |
| 20260505083848 | 48 | 38 | 3.5 | 7.8 | 0.00 | 1.98 | 0.24 | 95 | 1011.0 |
| 20260505083349 | 48 | 355 | 3.5 | 7.8 | 0.00 | 1.98 | 0.24 | 95 | 1010.9 |
| 20260505082848 | 48 | 43 | 3.5 | 7.8 | 0.00 | 1.98 | 0.24 | 95 | 1011.0 |
| 20260505082348 | 48 | 355 | 2.6 | 7.8 | 0.00 | 1.98 | 0.24 | 95 | 1011.0 |
| 20260505082156 | 48 | 20 | 3.5 | 11.3 | 0.00 | 1.98 | 0.24 | 95 | 1010.9 |
| 20260505081346 | 48 | 11 | 3.5 | 11.3 | 0.00 | 1.98 | 0.24 | 95 | 1010.9 |
| 20260505080938 | 48 | 23 | 3.5 | 9.6 | 0.00 | 1.98 | 0.24 | 94 | 1011.0 |
| 20260505080923 | 48 | 17 | 3.5 | 11.3 | 0.00 | 1.98 | 0.24 | 95 | 1011.0 |
| 20260505075844 | 48 | 342 | 3.5 | 8.7 | 0.00 | 1.98 | 0.24 | 95 | 1010.9 |
| 20260505075347 | 48 | 9 | 3.5 | 8.7 | 0.00 | 1.98 | 0.24 | 94 | 1010.9 |
| 20260505074847 | 48 | 33 | 3.5 | 10.4 | 0.00 | 1.98 | 0.24 | 94 | 1011.0 |
| 20260505074346 | 48 | 20 | 4.3 | 10.4 | 0.00 | 1.98 | 0.24 | 94 | 1010.9 |
| 20260505073845 | 48 | 355 | 3.5 | 8.7 | 0.00 | 1.98 | 0.24 | 94 | 1010.9 |
| 20260505073342 | 48 | 17 | 3.5 | 8.7 | 0.00 | 1.98 | 0.24 | 94 | 1010.9 |
| 20260505072840 | 48 | 329 | 3.5 | 7.8 | 0.00 | 1.98 | 0.24 | 95 | 1010.9 |
| 20260505072340 | 48 | 328 | 3.5 | 8.7 | 0.00 | 1.98 | 0.24 | 95 | 1011.0 |
| 20260505071839 | 48 | 55 | 3.5 | 8.7 | 0.00 | 1.98 | 0.24 | 95 | 1011.0 |
| 20260505071342 | 48 | 5 | 3.5 | 8.7 | 0.00 | 1.98 | 0.24 | 95 | 1011.0 |
| 20260505070838 | 48 | 38 | 3.5 | 8.7 | 0.00 | 1.98 | 0.24 | 95 | 1011.0 |
| 20260505070339 | 48 | 51 | 2.6 | 7.0 | 0.00 | 1.98 | 0.24 | 95 | 1011.0 |
| 20260505065834 | 48 | 47 | 2.6 | 7.0 | 0.00 | 1.98 | 0.24 | 95 | 1011.1 |
| 20260505065336 | 48 | 19 | 3.5 | 8.7 | 0.00 | 1.98 | 0.24 | 95 | 1011.1 |
| 20260505064835 | 48 | 46 | 3.5 | 8.7 | 0.00 | 1.98 | 0.24 | 94 | 1011.1 |
| 20260505064334 | 48 | 27 | 3.5 | 7.8 | 0.00 | 1.98 | 0.24 | 95 | 1011.1 |
| 20260505064138 | 48 | 5 | 3.5 | 10.4 | 0.00 | 1.98 | 0.24 | 95 | 1011.2 |
| 20260505063333 | 48 | 19 | 2.6 | 10.4 | 0.00 | 1.98 | 0.24 | 95 | 1011.2 |
| 20260505062832 | 48 | 335 | 2.6 | 7.0 | 0.00 | 1.98 | 0.24 | 95 | 1011.2 |
| 20260505062332 | 48 | 40 | 2.6 | 7.8 | 0.00 | 1.98 | 0.24 | 95 | 1011.3 |
| 20260505061833 | 48 | 59 | 2.6 | 7.8 | 0.00 | 1.98 | 0.24 | 95 | 1011.3 |
| 20260505061331 | 48 | 5 | 2.6 | 5.2 | 0.00 | 1.98 | 0.24 | 95 | 1011.4 |
| 20260505060834 | 48 | 15 | 2.6 | 7.8 | 0.00 | 1.98 | 0.24 | 95 | 1011.3 |
| 20260505060333 | 47 | 51 | 2.6 | 7.8 | 0.00 | 1.98 | 0.24 | 95 | 1011.2 |
| 20260505055829 | 47 | 333 | 3.5 | 7.8 | 0.00 | 1.98 | 0.24 | 95 | 1011.2 |
| 20260505055328 | 47 | 5 | 2.6 | 7.8 | 0.00 | 1.98 | 0.24 | 95 | 1011.2 |
| 20260505054827 | 47 | 26 | 3.5 | 8.7 | 0.00 | 1.98 | 0.24 | 96 | 1011.2 |
| 20260505054330 | 47 | 40 | 3.5 | 8.7 | 0.00 | 1.98 | 0.24 | 96 | 1011.1 |
| 20260505053826 | 47 | 42 | 2.6 | 10.4 | 0.00 | 1.98 | 0.24 | 96 | 1011.0 |
| 20260505053324 | 47 | 10 | 2.6 | 10.4 | 0.00 | 1.98 | 0.24 | 96 | 1010.9 |
| 20260505052930 | 47 | 26 | 3.5 | 8.7 | 0.00 | 1.98 | 0.24 | 96 | 1010.9 |
| 20260505052911 | 48 | 9 | 2.6 | 7.0 | 0.00 | 1.98 | 0.24 | 96 | 1010.9 |
| 20260505051823 | 48 | 19 | 3.5 | 8.7 | 0.00 | 1.98 | 0.24 | 96 | 1010.7 |
| 20260505051323 | 48 | 355 | 3.5 | 8.7 | 0.00 | 1.98 | 0.24 | 96 | 1010.8 |
| 20260505050823 | 48 | 355 | 2.6 | 8.7 | 0.00 | 1.98 | 0.24 | 96 | 1010.7 |
| 20260505050334 | 48 | 5 | 2.6 | 7.8 | 0.00 | 1.98 | 0.24 | 96 | 1010.7 |